Weather in Novosokolniky

Russia / Pskov Oblast     56°20′26″N   30°09′09″E
temp.,
°C
wind,
m/s
gust,
m/s
humid.,
%
clouds,
%
prec.,
mm/h
press.,
hPa
HPBL,
m
23 september, thu
thu2300:00+3nne2598100 0.7 1015599
03:00+3nne1399100 0.8 1015558
06:00+3ne1297100 0.1 1014473
09:00+4e1297100 0.1 1013454
12:00+5s1293100 0.1 1013353
15:00+5ssw2388100 0.1 1011501
18:00+5s2692100 0.0 1009468
21:00+5s4995100 0.0 1006486
24 september, fri
fri2400:00+5sse51293100 0.0 1003660
03:00+5sse61493100 0.1 998690
06:00+5se71696100 2.4 993850
09:00+6se61496100 7.1 992782
12:00+6se61295100 2.3 992854
15:00+7ese4995100 2.4 993766
18:00+7ese3896100 0.0 996525
21:00+6e2698100 0.1 998343
25 september, sat
sat2500:00+6e1198100 0.0 100051
03:00+6sw1298100 0.0 100183
06:00+7sw2498100 0.0 1002194
09:00+8sw3898100 0.1 1002491
12:00+9wsw3794100 0.0 1004502
15:00+9sw3891100 0.1 1004431
18:00+8ssw2596100 0.6 1005322
21:00+8w2599100 0.6 1007264
26 september, sun
sun2600:00+8nw389897 0.0 1009380
03:00+8nw3109610 0.0 1011469
06:00+6wnw411979 0.0 1013372
09:00+6nw5119399 0.0 1015529
12:00+10nw597567 0.0 1017846
15:00+12nnw586488 0.1 10191322
18:00+10nnw497141 0.1 1021687
21:00+6nnw27965 0.2 1023146
27 september, mon
mon2700:00+5nnw29975 0.0 1024207
03:00+4nnw28979 0.0 1026183
06:00+4n279824 0.0 1027175
09:00+6nne259498 0.0 1027229
12:00+10ne348388 0.0 1028502
15:00+12ne236942 0.0 1028910
18:00+10nne12795 0.0 102812
21:00+8nne2484100 0.0 102993